Wind_Speed
10 8 7 6 6 8 11 13 14 16 17 21 22 21 21 20 16 14 14 15 14 13 12 12 13 14 16 16 15 15 15 16
10 8 8 8 10 12 14 17 19 22 22 22 22 22 21 20 17 13 12 12 12 11 11 12 12 14 16 17 16 16 18 19
13 10 10 11 13 15 18 20 21 22 23 22 21 22 21 18 16 13 11 10 9 9 9 11 12 14 17 17 18 19 20 22
15 13 13 14 15 18 19 20 20 21 22 22 21 19 19 17 15 12 11 9 9 8 8 9 10 12 13 14 16 17 18 20
16 16 15 16 17 19 20 19 20 22 23 22 19 17 15 15 14 12 9 7 6 6 6 7 8 9 10 11 12 13 15 16
18 18 17 18 19 20 19 18 22 24 22 19 16 14 12 11 9 9 7 5 4 5 6 8 8 8 8 8 9 11 12 13
20 20 20 20 20 18 17 18 22 21 19 16 13 11 11 9 6 4 3 4 5 7 8 8 10 8 6 5 7 8 9 10
19 21 21 22 20 18 18 18 21 18 16 14 13 11 9 7 3 1 3 4 7 8 9 10 10 8 5 4 5 6 7 6
18 22 22 23 20 18 16 17 19 17 14 12 12 11 9 6 2 1 1 4 7 9 8 8 7 9 6 4 4 5 5 4
17 23 23 24 20 17 15 17 16 16 14 12 11 10 8 6 5 4 2 4 6 7 6 7 9 10 7 3 5 6 4 3
18 23 23 24 21 18 15 13 14 13 15 14 13 12 10 8 6 5 3 3 5 4 7 10 12 11 8 3 4 5 4 4
17 21 23 24 23 20 18 16 15 13 13 14 13 13 11 10 8 7 4 3 3 4 7 10 10 10 7 1 3 4 4 5
22 24 25 26 27 25 23 21 18 16 14 15 15 15 13 11 9 7 5 3 3 4 7 9 9 7 5 1 3 3 5 6
27 25 28 27 26 24 24 21 20 16 14 16 17 16 14 12 9 7 6 4 5 5 5 8 9 7 7 8 4 5 7 7
34 29 27 27 26 25 25 24 23 21 20 19 19 18 16 13 10 8 6 6 7 7 6 8 9 10 7 7 5 5 7 7
34 31 27 26 26 25 26 27 28 24 20 18 20 19 16 14 12 9 8 7 7 8 9 10 11 12 12 8 7 8 6 5
36 34 29 26 28 27 25 27 24 20 19 19 21 20 18 16 14 11 10 9 9 9 9 11 12 13 13 10 7 5 6 6
34 36 32 28 28 28 29 28 26 24 23 23 21 20 20 19 16 14 12 11 10 11 9 11 13 14 14 10 7 5 5 4
33 37 37 32 29 30 31 29 28 26 25 25 22 20 21 20 17 15 13 12 12 10 10 11 13 14 14 11 8 6 5 5
29 35 39 37 33 33 30 31 30 28 26 25 21 18 18 17 17 17 15 14 12 12 10 12 12 14 14 12 9 7 7 8
Wind_Direction
180 178 176 175 164 145 135 128 130 132 131 128 128 128 128 130 127 116 105 101 98 89 77 64 56 51 47 41 39 39 38 43
187 185 177 171 158 145 134 127 126 127 127 129 128 126 128 130 128 119 107 96 90 81 68 59 51 45 44 44 43 42 42 40
188 188 178 169 156 145 138 133 132 132 134 135 131 128 128 129 124 119 116 109 98 87 75 63 53 53 55 45 43 47 43 41
188 184 176 170 160 149 144 139 139 139 140 141 139 135 133 132 129 126 116 108 100 87 71 58 48 48 47 40 40 40 36 41
185 181 177 172 161 151 146 144 145 143 143 142 141 137 133 131 128 124 116 101 83 64 50 47 41 36 32 31 34 27 32 37
182 177 177 169 161 154 150 148 150 148 146 146 145 147 146 140 132 124 117 95 59 40 24 29 20 18 12 18 21 11 18 29
181 178 178 174 166 163 160 155 156 154 154 155 153 155 154 151 146 123 90 49 18 10 2 8 2 8 2 1 359 356 359 15
185 180 180 180 175 168 165 163 167 168 171 172 170 169 176 166 158 97 54 20 360 356 349 351 359 13 355 337 321 321 333 6
190 184 185 185 182 177 179 181 181 182 181 182 179 186 198 192 216 290 5 7 354 349 352 4 353 351 341 308 258 265 299 343
194 187 185 183 186 186 186 187 184 191 191 187 190 196 205 228 250 245 310 8 352 343 349 346 342 347 354 320 224 229 252 297
195 191 188 185 184 185 185 187 189 190 201 204 207 215 230 246 250 258 295 352 343 345 341 345 347 354 3 30 193 225 234 278
206 196 189 188 186 188 192 193 195 203 211 214 219 220 223 233 250 258 283 327 328 339 346 349 352 355 3 51 180 209 247 280
209 201 197 196 195 196 198 202 202 210 212 220 220 219 222 237 244 259 284 309 302 319 342 350 359 356 338 135 178 223 261 287
213 209 207 207 209 210 207 203 207 215 219 221 221 224 226 233 239 256 277 291 297 312 330 343 349 341 304 272 243 261 263 278
218 214 211 212 211 211 205 205 207 211 214 224 221 225 228 231 239 247 252 272 292 303 308 330 341 338 326 278 258 242 239 263
220 219 217 217 214 213 213 210 210 216 220 221 221 224 226 232 240 247 251 266 282 297 305 324 335 338 335 317 285 269 239 234
219 220 219 221 220 220 222 222 225 224 219 220 222 225 229 234 241 249 258 272 282 292 303 321 333 338 338 328 308 289 273 260
221 221 221 223 221 223 227 229 226 217 218 220 222 225 230 233 237 242 253 268 282 292 298 318 332 338 338 332 320 308 294 281
221 222 224 225 225 228 228 231 229 225 224 221 221 224 229 233 239 244 251 261 267 280 292 313 328 337 338 334 328 329 321 321
224 224 225 226 228 230 229 234 229 228 230 226 229 236 238 241 243 244 248 255 266 276 287 305 319 332 334 333 332 331 328 325
Height
1567 1569 1570 1571 1572 1573 1574 1575 1577 1579 1581 1582 1583 1584 1585 1586 1587 1588 1588 1589 1589 1589 1589 1589 1589 1588 1588 1586 1585 1583 1581 1579
1567 1569 1570 1571 1573 1574 1575 1576 1578 1580 1584 1587 1586 1587 1588 1589 1590 1591 1592 1592 1592 1592 1592 1591 1591 1590 1589 1588 1586 1584 1582 1580
1566 1568 1570 1572 1574 1575 1577 1578 1580 1583 1584 1588 1591 1591 1592 1593 1594 1594 1594 1594 1594 1594 1593 1593 1592 1591 1590 1589 1588 1586 1584 1582
1565 1567 1569 1572 1574 1577 1579 1580 1582 1584 1586 1588 1591 1595 1595 1595 1596 1597 1597 1597 1597 1596 1596 1595 1594 1593 1592 1591 1589 1588 1586 1585
1564 1568 1570 1572 1575 1578 1580 1582 1584 1586 1588 1589 1593 1596 1598 1598 1597 1599 1600 1600 1599 1599 1598 1597 1596 1595 1594 1593 1591 1589 1588 1588
1564 1567 1571 1573 1577 1580 1582 1584 1586 1588 1589 1592 1593 1596 1599 1601 1601 1601 1602 1602 1602 1601 1599 1598 1597 1597 1595 1594 1593 1591 1589 1589
1562 1566 1570 1573 1576 1581 1584 1585 1588 1590 1592 1594 1596 1598 1599 1601 1602 1603 1603 1604 1603 1602 1600 1600 1598 1597 1596 1595 1593 1591 1591 1590
1561 1565 1569 1573 1576 1580 1583 1586 1588 1590 1592 1594 1596 1597 1600 1601 1603 1603 1604 1604 1603 1603 1601 1600 1598 1597 1597 1595 1594 1592 1591 1590
1562 1565 1569 1573 1577 1580 1583 1586 1588 1590 1592 1594 1597 1598 1600 1601 1603 1604 1604 1605 1604 1603 1602 1601 1599 1598 1596 1595 1594 1592 1591 1590
1563 1565 1568 1572 1577 1580 1583 1586 1588 1590 1593 1594 1597 1599 1601 1603 1603 1604 1604 1605 1605 1604 1602 1601 1600 1598 1595 1594 1593 1592 1592 1591
1561 1564 1567 1571 1576 1580 1583 1586 1588 1589 1592 1594 1596 1598 1601 1603 1604 1604 1604 1605 1605 1604 1603 1602 1599 1597 1595 1594 1593 1593 1593 1592
1561 1564 1567 1570 1573 1577 1581 1584 1587 1589 1591 1593 1595 1597 1599 1602 1604 1604 1604 1605 1604 1604 1603 1602 1600 1598 1596 1595 1594 1594 1593 1592
1558 1560 1564 1567 1569 1573 1576 1580 1585 1588 1589 1591 1594 1595 1598 1600 1602 1604 1604 1604 1605 1604 1603 1601 1600 1599 1598 1596 1595 1594 1593 1592
1554 1557 1560 1563 1567 1570 1574 1578 1583 1586 1588 1589 1592 1595 1597 1598 1600 1602 1603 1603 1604 1604 1603 1601 1600 1599 1598 1596 1595 1594 1592 1591
1547 1551 1556 1560 1564 1568 1572 1576 1580 1582 1584 1587 1590 1592 1595 1598 1599 1601 1602 1602 1602 1602 1602 1601 1600 1598 1596 1596 1593 1591 1591 1590
1547 1550 1554 1557 1561 1565 1568 1570 1573 1577 1581 1585 1588 1590 1593 1596 1598 1599 1600 1601 1602 1601 1601 1599 1598 1596 1594 1592 1591 1589 1589 1589
1542 1547 1551 1555 1559 1562 1565 1568 1572 1576 1580 1583 1585 1588 1591 1593 1596 1598 1599 1599 1600 1600 1599 1598 1596 1594 1592 1590 1589 1587 1587 1587
1538 1543 1547 1550 1554 1557 1560 1564 1568 1572 1575 1579 1582 1585 1588 1590 1593 1595 1597 1598 1598 1599 1598 1596 1594 1592 1590 1588 1587 1586 1585 1585
1533 1538 1542 1546 1549 1551 1554 1559 1565 1568 1571 1574 1578 1581 1584 1587 1589 1591 1593 1595 1596 1596 1596 1594 1593 1590 1588 1586 1585 1584 1583 1582
1527 1531 1536 1540 1544 1546 1552 1557 1561 1565 1568 1571 1575 1578 1582 1584 1586 1588 1590 1591 1593 1593 1593 1592 1590 1589 1587 1585 1584 1582 1581 1580